Total_Precipitation_Accumulation
1.96 2.11 2.03 1.96 1.95 1.98 2.04 2.14 2.19 2.06 1.76 1.29 1.13 1.10 1.12 1.20 1.53 1.41 1.29 1.29 1.16 1.10 1.02 0.99 1.00 1.05 1.22 1.43 1.68 1.89 2.02 2.13 2.18 2.31 2.47 2.42 2.48 2.53
1.78 1.90 2.02 2.01 2.01 1.99 2.05 2.08 2.06 2.05 1.91 1.49 1.22 1.09 1.16 1.09 1.30 1.08 1.19 1.39 1.17 1.01 0.95 0.92 0.91 0.93 0.96 1.06 1.11 1.17 1.23 1.28 1.42 1.72 1.92 1.89 1.87 1.97
1.56 1.60 1.76 1.87 1.99 2.00 2.00 2.00 2.03 2.00 1.87 1.62 1.28 1.13 1.26 1.27 1.29 1.11 1.08 1.13 1.06 1.02 0.95 0.87 0.84 0.88 0.85 0.85 0.85 0.84 0.88 0.89 0.97 1.17 1.37 1.49 1.46 1.44
1.42 1.50 1.53 1.53 1.65 1.77 1.88 1.85 1.91 1.94 1.92 1.81 1.52 1.29 1.30 1.39 1.55 1.49 1.35 1.24 1.21 1.30 1.23 1.06 0.94 0.93 0.92 0.86 0.80 0.75 0.71 0.74 0.76 0.84 1.00 1.25 1.38 1.38
1.20 1.28 1.30 1.38 1.52 1.52 1.58 1.66 1.72 1.77 1.89 1.85 1.77 1.64 1.48 1.41 1.50 1.47 1.49 1.61 1.54 1.51 1.54 1.36 1.17 1.06 1.02 0.98 0.92 0.82 0.73 0.72 0.76 0.81 0.84 0.97 1.17 1.30
1.06 1.14 1.19 1.24 1.34 1.39 1.39 1.52 1.65 1.73 1.77 1.75 1.70 1.63 1.58 1.54 1.54 1.53 1.58 1.70 1.77 1.64 1.58 1.48 1.42 1.32 1.19 1.11 1.02 0.95 0.86 0.79 0.80 0.88 0.90 0.93 1.06 1.16
0.99 1.02 1.05 1.04 1.07 1.12 1.11 1.30 1.45 1.63 1.70 1.74 1.65 1.53 1.48 1.50 1.49 1.51 1.59 1.77 1.80 1.81 1.76 1.63 1.50 1.33 1.25 1.19 1.10 1.05 1.01 0.91 0.86 0.90 0.97 0.98 1.03 1.15
0.89 0.93 1.02 1.04 0.99 0.93 0.91 0.97 1.09 1.21 1.41 1.55 1.59 1.52 1.44 1.42 1.53 1.65 1.64 1.75 1.86 1.75 1.62 1.70 1.62 1.53 1.37 1.22 1.23 1.21 1.13 1.03 0.95 0.93 0.97 1.00 0.99 1.07
0.72 0.86 0.98 1.02 1.05 1.05 0.95 0.93 0.91 0.93 1.03 1.21 1.36 1.38 1.37 1.40 1.51 1.62 1.69 1.74 1.62 1.63 1.56 1.67 1.65 1.53 1.36 1.34 1.40 1.26 1.20 1.15 1.12 1.09 1.08 1.06 1.03 1.06
0.63 0.74 0.90 1.02 1.06 1.09 1.04 1.09 1.03 0.91 0.88 0.93 1.12 1.22 1.25 1.42 1.61 1.78 1.89 1.87 1.74 1.65 1.55 1.60 1.53 1.40 1.30 1.28 1.40 1.27 1.17 1.12 1.10 1.13 1.13 1.09 1.08 1.11
0.62 0.68 0.85 0.94 1.08 1.12 1.06 1.15 1.13 0.92 0.84 0.93 0.96 1.05 1.18 1.34 1.56 1.79 1.87 1.86 1.81 1.69 1.48 1.35 1.27 1.32 1.34 1.28 1.27 1.26 1.14 1.07 1.00 0.99 0.98 0.98 0.99 1.10
0.65 0.68 0.91 0.97 1.04 1.00 0.97 1.17 1.26 1.09 0.83 0.82 0.89 1.03 1.14 1.30 1.54 1.73 1.97 1.97 1.76 1.66 1.48 1.33 1.30 1.38 1.52 1.41 1.23 1.13 1.06 1.10 1.09 1.05 1.01 1.01 1.09 1.06
0.54 0.59 0.61 0.76 0.81 0.85 0.94 1.01 1.15 1.04 0.91 0.99 1.08 1.10 1.20 1.28 1.40 1.55 1.78 1.96 1.88 1.64 1.46 1.45 1.41 1.38 1.37 1.32 1.23 1.13 1.02 1.01 1.01 1.03 1.07 1.11 1.15 1.11
0.44 0.49 0.54 0.68 0.72 0.75 0.79 0.83 0.90 0.94 0.97 1.11 1.13 1.03 1.09 1.18 1.25 1.38 1.50 1.62 1.52 1.46 1.31 1.25 1.26 1.20 1.16 1.08 1.05 1.08 1.09 1.03 1.00 1.00 1.00 1.17 1.23 1.24
0.42 0.51 0.53 0.61 0.59 0.60 0.68 0.71 0.78 0.98 1.12 1.07 1.05 1.00 0.99 1.06 1.12 1.28 1.43 1.54 1.51 1.35 1.20 1.09 1.09 1.08 1.06 1.01 0.92 0.88 0.94 0.98 0.94 0.95 0.99 1.02 1.04 1.14
0.44 0.51 0.55 0.58 0.57 0.57 0.64 0.72 0.82 0.98 1.15 1.02 0.90 0.90 0.94 1.05 1.16 1.20 1.26 1.31 1.45 1.45 1.30 1.17 1.12 1.12 1.09 0.98 0.94 0.88 0.80 0.82 0.86 0.93 0.98 0.99 0.99 1.00
0.47 0.55 0.66 0.74 0.72 0.73 0.80 0.82 0.85 0.87 0.94 0.88 0.89 0.96 1.03 1.05 1.12 1.19 1.20 1.17 1.17 1.20 1.23 1.19 1.15 1.17 1.18 1.11 1.03 0.92 0.86 0.80 0.82 0.94 1.06 1.09 1.03 1.02
0.60 0.61 0.72 0.87 0.92 0.93 0.95 0.96 0.98 0.93 0.94 0.91 0.95 1.00 1.02 1.01 1.02 1.12 1.22 1.24 1.15 1.04 0.99 0.98 1.04 1.15 1.21 1.19 1.06 0.95 0.92 0.91 0.91 0.93 0.96 1.00 0.97 0.95
0.61 0.65 0.84 0.90 0.90 0.92 0.97 1.01 0.94 0.84 0.85 0.88 0.85 0.87 0.89 0.89 0.91 0.95 1.04 1.10 1.11 1.04 0.97 0.94 0.99 1.08 1.13 1.03 0.91 0.83 0.87 0.93 1.01 0.99 0.93 0.88 0.84 0.82
0.67 0.85 1.03 1.07 1.01 0.95 0.92 0.89 0.81 0.75 0.73 0.74 0.78 0.80 0.85 0.88 0.88 0.87 0.89 0.91 0.95 0.97 1.01 1.01 1.03 1.07 1.13 1.07 0.94 0.81 0.79 0.87 0.94 1.00 0.97 0.96 0.96 1.00
0.72 0.85 0.98 1.08 1.03 0.90 0.82 0.79 0.75 0.73 0.71 0.72 0.76 0.81 0.83 0.86 0.85 0.84 0.83 0.89 0.91 0.91 0.92 0.90 0.93 1.13 1.19 1.24 1.17 0.93 0.84 0.93 1.02 1.03 1.02 1.06 1.06 1.00
0.70 0.73 0.76 0.77 0.73 0.71 0.75 0.74 0.73 0.75 0.75 0.74 0.77 0.80 0.85 0.91 0.91 0.86 0.85 0.85 0.86 0.85 0.83 0.84 0.92 1.10 1.19 1.25 1.15 0.98 0.87 0.89 1.04 1.15 1.13 1.10 1.06 1.01
0.71 0.69 0.70 0.71 0.70 0.68 0.70 0.72 0.73 0.74 0.75 0.77 0.81 0.84 0.85 0.87 0.91 0.91 0.86 0.85 0.86 0.84 0.86 0.89 0.92 1.04 1.16 1.19 1.16 1.06 0.97 0.94 0.95 0.97 0.97 1.03 1.00 0.92